Location: Bijele Vode
(45.2833°N, 16.2000°E)
Time: 22:55:12
(UTC+00:00)

Cosmos 1125 Rocket - Pass Details

Date: 21 January 2021
Orbit: 757 x 780 km, 74.0° (Epoch: 08 March)

Event Time Altitude Azimuth Distance (km) Brightness Sun altitude
Rises 05:16:59 0° 341° (NNW) 3,263 6.4 -12.2°
Reaches altitude 10° 05:19:24 10° 344° (NNW) 2,335 5.7 -11.8°
Maximum altitude 05:24:40 63° 66° (ENE) 869 4.0 -10.9°
Drops below altitude 10° 05:29:55 10° 148° (SSE) 2,328 6.8 -10.0°
Sets 05:32:19 0° 151° (SSE) 3,252 7.6 -9.6°
